Location: Caltech
(34.1382°N, 118.1253°W)
Time: 13:56:46
(UTC-08:00)

OPAL - Visible Passes

Search period start: 25 November 2014 00:00
Search period end: 05 December 2014 00:00
Orbit: 744 x 797 km, 100.2° (Epoch: 25 November)

Date Brightness Start Highest point End Pass type
(mag) Time Alt. Az. Time Alt. Az. Time Alt. Az.
25 Nov 9.7 03:43:35 10° ESE 03:47:17 21° ENE 03:49:45 15° NNE visible
25 Nov 8.0 05:21:20 10° SSW 05:25:54 36° W 05:30:03 12° NW visible
25 Nov 7.4 17:34:10 10° NNE 17:39:13 79° ESE 17:44:19 10° SSW visible
25 Nov 10.4 19:16:20 10° NW 19:17:25 11° WNW 19:18:30 10° WNW visible
26 Nov 7.3 04:45:37 10° SSE 04:50:35 88° WSW 04:54:13 19° NNW visible
26 Nov 9.6 18:38:34 10° NNW 18:42:34 24° WNW 18:46:36 10° WSW visible
27 Nov 8.7 04:10:52 10° SE 04:15:26 39° ENE 04:18:24 20° NNE visible
27 Nov 8.8 05:50:55 10° SW 05:54:24 19° W 05:57:54 10° NW visible
27 Nov 8.2 18:02:37 10° N 18:07:32 55° WNW 18:12:30 10° SSW visible
28 Nov 9.9 03:37:17 10° ESE 03:40:29 17° ENE 03:42:35 14° NE visible
28 Nov 7.7 05:14:14 10° S 05:18:58 45° WSW 05:22:53 15° NNW visible
28 Nov 7.5 17:27:19 10° NNE 17:32:20 63° ESE 17:37:24 10° S visible
28 Nov 10.2 19:08:15 10° NNW 19:10:39 14° WNW 19:13:04 10° W visible
29 Nov 7.5 04:38:46 10° SSE 04:43:42 75° ENE 04:47:05 21° N visible
29 Nov 9.3 18:31:24 10° N 18:35:46 30° WNW 18:40:09 10° SW visible
30 Nov 9.0 04:04:16 10° SE 04:08:36 31° ENE 04:11:16 19° NNE visible
30 Nov 8.5 05:43:30 10° SSW 05:47:27 24° W 05:51:24 10° NW visible
30 Nov 7.8 17:55:39 10° N 18:00:41 69° WNW 18:05:46 10° SSW visible
01 Dec 10.1 03:31:11 10° E 03:33:41 14° ENE 03:35:28 12° NE visible
01 Dec 7.5 05:07:12 10° S 05:12:03 57° WSW 05:15:46 17° NNW visible
01 Dec 7.7 17:20:30 10° NNE 17:25:26 51° ESE 17:30:25 10° S visible
01 Dec 10.1 19:00:44 10° NNW 19:03:53 17° WNW 19:07:03 10° WSW visible
02 Dec 7.9 04:31:58 10° SSE 04:36:49 59° ENE 04:39:58 22° N visible
02 Dec 8.9 18:24:18 10° N 18:28:56 37° WNW 18:33:37 10° SW visible
03 Dec 9.4 03:57:45 10° ESE 04:01:46 26° ENE 04:04:10 18° NNE visible
03 Dec 8.3 05:36:12 10° SSW 05:40:30 30° W 05:44:28 12° NW visible
03 Dec 7.5 17:48:43 10° NNE 17:53:49 86° WNW 17:58:58 10° SSW visible
04 Dec 10.3 03:25:29 10° ENE 03:26:55 11° ENE 03:28:21 10° NE visible
04 Dec 7.3 05:00:13 10° S 05:05:08 73° WSW 05:08:40 19° NNW visible
04 Dec 8.0 17:13:44 10° NNE 17:18:32 40° E 17:23:21 10° S visible
04 Dec 9.8 18:53:24 10° NNW 18:57:06 21° WNW 19:00:49 10° WSW visible
